Regional Weather Roundup
Issued by NWS

Home | Current Version | Previous Version | Graphics & Text | Print | Product List | Glossary On
Versions: 1 2 3 4 5 6 7 8 9 10 11 12 13 14 15 16 17 18 19 20 21 22 23 24 25 26 27 28 29 30 31 32 33 34 35 36 37 38 39 40 41 42 43 44 45 46 47 48 49 50
000
ASUS43 KFSD 210802
RWRSD

WEATHER ROUNDUP FOR SOUTH DAKOTA
NATIONAL WEATHER SERVICE SIOUX FALLS SD
200 AM CST FRI NOV 21 2014

NOTE: "FAIR" INDICATES FEW OR NO CLOUDS BELOW 12,000 FEET WITH NO
SIGNIFICANT WEATHER AND/OR OBSTRUCTIONS TO VISIBILITY.


SDZ001>005-009-010-012>017-210900-
NORTHWEST AND NORTH CENTRAL SOUTH DAKOTA

CITY           SKY/WX    TMP DP  RH WIND       PRES   REMARKS
BUFFALO          N/A     21  17  84 W3        29.74F
FAITH            N/A     14  10  84 S10       29.84F WCI   1
MOBRIDGE       PTCLDY    21  18  88 S15       29.88F WCI   8
$$

SDZ012>016-024>037-041>051-057-063-072>074-210900-
SOUTHWEST AND SOUTH CENTRAL SOUTH DAKOTA

CITY           SKY/WX    TMP DP  RH WIND       PRES   REMARKS
RAPID CTY ARPT PTCLDY    22  18  85 CALM      29.84F
PIERRE         PTCLDY    19  15  84 SE9       29.91F WCI   8
CUSTER         PTCLDY    32  19  58 W3        29.86F
ELLSWORTH AFB  PTCLDY    26  20  78 NW6       29.84S WCI  19
PHILIP         PTCLDY    15   7  70 W5        29.88F WCI   8
PINE RIDGE     MOCLDY    31  20  63 SW6       29.89F WCI  25
WINNER         FAIR      30  20  66 S26G36    29.93F WCI  16
$$

SDZ004>011-016>023-039-040-210900-
NORTHEAST SOUTH DAKOTA

CITY           SKY/WX    TMP DP  RH WIND       PRES   REMARKS
ABERDEEN       PTCLDY    13   7  77 S15       30.01F WCI  -3
WATERTOWN      MOCLDY     8   4  83 S14       30.05F WCI  -8
SISSETON         N/A      8   4  83 S14       30.06F WCI  -8
$$

SDZ017-020-022-023-036>040-048>070-210900-
SOUTHEAST SOUTH DAKOTA

CITY           SKY/WX    TMP DP  RH WIND       PRES   REMARKS
SIOUX FALLS    PTCLDY    15   9  76 S12       30.15F WCI   2
HURON          PTCLDY    14   9  80 S15G23    30.06F WCI  -1
CHAMBERLAIN    PTCLDY    16  13  89 SE7       29.99F WCI   6
MITCHELL       PTCLDY    16  12  84 SE17      30.11F WCI   0
YANKTON        PTCLDY    16  12  86 SE7       30.17F WCI   6
$$

ABBREVIATIONS USED IN REMARKS
   TC - TEMPERATURE IN CELSIUS
  WCI - WIND CHILL INDEX
   HX - HEAT INDEX
  VSB - VISIBILITY




USA.gov is the U.S. government's official web portal to all federal, state and local government web resources and services.